CAPE
0 2 4 6 6 2 2 0 0 3 1 4 15 20 0 0 0 0 0 0 0 0 0 0 0 0 0 0 0 0 0 0 0 3 13 11 22 19
20 23 19 18 15 3 0 0 0 3 5 2 10 9 0 0 0 0 0 0 0 0 0 0 0 0 0 0 0 0 0 3 7 11 10 15 23 28
55 72 79 59 37 6 0 0 0 0 1 0 2 2 0 0 0 0 0 0 0 0 0 0 0 0 0 0 0 1 2 3 7 9 10 12 16 17
94 107 111 97 71 23 1 1 2 0 0 0 0 0 0 0 0 0 0 0 0 0 0 0 0 0 0 0 0 1 1 2 5 6 4 7 16 11
113 87 124 147 119 93 39 8 6 2 0 0 7 0 0 0 0 0 0 0 0 0 0 0 0 0 0 0 0 1 0 0 1 0 9 11 10 8
121 130 126 127 157 143 75 60 30 23 8 2 2 0 0 0 0 0 0 0 0 0 0 0 0 0 0 0 0 0 0 0 2 7 7 6 5 5
102 95 101 124 115 140 101 80 49 69 31 4 0 0 0 0 0 0 0 0 0 0 0 0 0 0 0 0 0 0 1 2 6 4 5 6 9 9
89 93 91 56 57 76 84 71 20 42 30 0 0 0 0 0 0 0 0 0 0 0 0 0 0 0 0 0 0 0 1 2 1 2 3 5 8 7
59 70 102 81 34 32 23 34 0 0 0 1 2 0 0 0 0 0 0 0 0 0 0 0 0 0 0 0 0 0 0 0 0 1 1 1 1 2
23 34 111 128 30 18 2 10 2 0 0 0 0 0 0 0 0 0 0 0 0 0 0 0 0 0 0 0 0 0 0 0 0 0 0 0 0 1
17 28 58 90 60 1 2 1 1 0 0 0 0 0 0 0 0 0 0 0 0 0 0 0 0 0 0 0 0 0 0 0 0 0 0 0 0 0
10 7 15 42 38 1 2 2 0 0 0 0 0 0 0 0 0 0 0 0 0 0 0 0 0 0 0 0 0 0 0 0 0 0 0 0 0 0
4 3 1 5 6 1 1 0 0 0 0 0 0 0 0 0 0 0 0 0 0 0 0 0 0 0 0 0 0 0 0 0 0 0 0 0 0 0
7 2 0 0 0 1 2 5 3 5 0 0 0 0 0 0 0 0 0 0 0 0 0 1 1 1 1 0 0 0 0 0 0 0 0 0 0 0
2 3 0 0 1 4 4 6 11 2 0 0 0 0 0 0 0 0 0 0 0 0 0 1 1 1 0 0 0 0 0 0 0 0 0 0 0 0
0 0 0 1 5 2 3 4 0 0 0 0 0 0 0 0 0 0 0 0 0 0 0 0 0 1 0 0 0 0 0 0 0 0 0 0 0 0
0 1 2 1 4 3 2 2 0 0 0 0 0 0 0 0 0 0 0 0 0 0 0 0 1 0 0 0 0 0 0 0 0 0 0 0 0 0
1 1 2 5 4 4 4 3 0 0 0 0 0 0 0 0 0 0 0 0 0 0 0 0 0 0 0 0 0 0 0 0 0 0 0 0 0 0
1 2 2 5 6 3 4 2 0 0 0 0 0 0 0 0 0 0 0 0 0 0 0 0 0 0 0 0 0 0 0 0 0 0 0 0 0 0
0 1 2 2 2 3 4 0 0 0 0 0 0 0 0 0 0 0 0 0 0 0 0 0 0 0 0 0 0 0 0 0 0 0 0 0 0 0
0 0 0 0 1 1 0 0 0 0 0 0 0 0 0 0 0 0 0 0 0 0 0 0 0 0 0 0 0 0 0 0 0 0 0 2 1 0
0 0 0 0 1 1 1 1 0 1 0 0 0 0 0 0 0 0 0 0 0 0 0 0 0 0 0 0 0 0 0 0 0 0 0 0 1 3
0 0 0 1 2 1 1 1 3 0 0 0 0 0 0 0 0 0 0 0 0 0 0 0 0 0 0 0 0 0 0 0 0 0 0 0 0 1
CIN
0 -331 -302 -242 -198 -103 -18 0 -2 -0 0 -158 -144 -182 0 0 0 0 0 0 0 0 0 0 0 0 0 0 0 0 0 0 0 -0 -0 -0 -1 -1
-245 -241 -253 -242 -175 -182 0 0 0 -24 -5 -14 -98 -48 0 0 0 0 0 0 0 0 0 0 0 0 0 0 0 0 -0 -0 -1 -0 -0 -1 -1 -1
-193 -192 -164 -168 -170 -210 0 0 0 0 0 -4 -14 -17 0 0 0 0 0 0 0 0 0 0 0 0 0 0 0 -0 -0 -0 -0 -0 -1 -1 -2 -1
-200 -163 -167 -150 -131 -129 0 0 -221 0 0 -2 -3 0 0 0 0 0 0 0 0 0 0 0 0 0 0 0 0 -0 -0 -0 -0 -0 -1 -1 -2 -2
-174 -187 -180 -153 -126 -119 -132 -173 -210 -178 0 0 -82 0 0 0 0 0 0 0 0 0 0 0 0 0 0 0 0 -0 0 0 -0 -0 -1 -2 -2 -2
-196 -172 -155 -156 -180 -144 -124 -127 -149 -149 -166 0 0 0 0 0 0 0 0 0 0 0 0 0 0 0 0 0 0 0 0 0 -0 -1 -1 -1 -2 -2
-150 -194 -176 -181 -187 -141 -134 -154 -138 -88 -129 -73 0 0 0 0 0 0 0 0 0 0 0 0 0 0 0 0 0 0 -0 -0 -1 -1 -1 -2 -1 -1
-135 -159 -177 -219 -208 -194 -190 -159 -138 -111 -137 -3 0 0 0 0 0 0 0 0 0 0 0 0 0 0 0 0 0 0 -0 -1 -1 -1 -1 -1 -1 -1
-157 -127 -139 -156 -207 -189 -227 -218 0 -85 0 -158 -230 0 0 0 0 0 0 0 0 0 0 0 0 0 0 0 0 0 0 -0 -1 -1 -0 -1 -1 -1
-161 -148 -101 -94 -151 -192 0 -244 0 0 0 0 0 0 0 0 0 0 0 0 0 0 0 0 0 0 0 0 0 0 0 0 -0 -0 0 0 -1 -1
-181 -222 -145 -104 -108 0 0 0 0 0 0 0 0 0 0 0 0 0 0 0 0 0 0 0 0 0 0 0 0 0 0 0 0 0 0 0 -1 -1
-213 -175 -180 -126 -117 0 0 0 0 0 0 0 0 0 0 0 0 0 0 0 0 0 0 0 0 0 0 0 0 0 0 0 0 0 0 0 0 0
0 0 -51 -129 -195 0 0 0 0 0 0 0 0 0 0 0 0 0 0 0 0 0 0 0 -0 0 0 0 0 0 0 0 0 0 0 0 0 0
-0 -0 -1 0 0 0 0 0 0 0 0 0 0 0 0 0 0 0 0 0 0 0 -0 -1 0 0 0 0 0 0 0 0 0 0 0 0 0 0
0 -0 0 0 0 0 0 0 0 0 0 0 0 0 0 0 0 0 0 0 0 0 -0 -0 -0 -1 -0 0 0 0 0 0 0 0 0 0 0 0
0 0 0 0 0 0 0 0 0 0 0 0 0 0 0 0 0 0 0 0 0 0 0 0 -0 -0 0 0 0 0 0 0 0 0 0 0 0 0
0 0 0 0 0 0 0 0 0 0 0 0 0 0 0 0 0 0 0 0 0 0 0 -0 -0 -0 0 0 0 0 0 0 0 0 0 0 0 0
0 0 0 0 0 0 0 0 0 0 0 0 0 0 0 0 0 0 0 0 0 0 0 0 0 0 0 0 0 0 0 0 0 0 0 0 0 0
0 0 0 0 0 0 0 0 0 0 0 0 0 0 0 0 0 0 0 0 0 0 0 0 0 0 0 0 0 0 0 0 0 0 0 0 0 0
0 0 0 0 0 0 0 0 0 0 0 0 0 0 0 0 0 0 0 0 0 0 0 0 0 0 0 0 0 0 0 0 0 0 0 0 0 0
0 0 0 0 0 0 0 0 0 0 0 0 0 0 0 0 0 0 0 0 0 0 0 0 0 0 0 0 0 0 0 0 0 0 0 0 0 0
0 0 0 0 0 0 0 0 0 0 0 0 0 0 0 0 0 0 0 0 0 0 0 0 0 0 0 0 0 0 0 0 0 0 0 0 0 0
0 0 0 0 0 0 0 0 0 0 0 0 0 0 0 0 0 0 0 0 0 0 0 0 0 0 0 0 0 0 0 0 0 0 0 0 0 0
Wind_Speed
27 27 28 28 26 25 26 24 27 31 31 26 25 22 20 19 18 19 22 24 26 27 28 29 32 35 33 34 36 37 38 37 35 34 33 31 32 33
27 27 27 27 28 27 25 25 24 27 33 25 25 23 21 20 20 20 23 24 27 28 30 32 34 34 34 34 35 35 34 32 31 30 28 28 30 30
27 27 28 26 26 24 25 26 27 25 30 28 26 23 22 22 20 22 22 24 25 28 30 32 34 33 33 33 32 32 31 30 28 28 27 28 27 27
27 26 27 25 26 27 28 26 26 24 24 26 24 22 23 21 18 21 23 23 25 27 30 32 33 32 30 29 30 29 29 27 26 26 26 25 27 27
29 27 27 25 27 27 27 28 25 22 22 25 23 22 23 21 21 21 21 24 25 27 30 30 31 29 28 28 29 27 26 25 24 24 23 24 25 24
31 30 29 28 27 25 26 27 23 22 22 22 22 23 22 21 21 21 24 22 25 28 31 30 30 28 27 26 26 25 25 23 22 22 22 24 23 22
33 32 31 30 28 26 26 26 22 21 20 22 22 22 21 21 21 21 22 23 26 28 31 31 29 26 25 25 23 23 22 21 20 21 22 21 21 21
37 34 34 32 29 28 26 26 23 21 20 21 20 20 19 19 19 20 22 25 31 26 31 31 25 25 25 24 23 23 20 18 19 21 21 19 20 20
36 35 35 34 32 31 28 26 22 21 21 20 18 17 18 16 16 18 20 24 28 27 31 32 24 25 25 24 22 19 17 17 19 21 21 21 20 20
36 33 35 37 33 30 28 26 24 22 20 21 18 16 16 13 13 17 18 22 25 26 26 30 25 27 26 24 19 17 18 17 18 20 22 23 20 19
38 31 31 34 31 27 26 22 21 23 20 16 15 14 12 11 11 15 18 24 29 28 23 26 26 29 27 23 17 18 18 18 20 22 23 21 20 20
40 36 27 27 28 23 23 21 21 19 15 12 12 12 11 11 12 16 16 23 27 28 21 25 27 29 27 22 19 21 19 20 22 21 21 20 19 20
43 38 34 30 26 20 22 21 20 15 11 11 10 10 11 11 13 14 16 19 23 24 21 22 24 25 24 25 23 20 20 24 24 22 18 17 18 17
44 41 29 29 20 18 20 19 15 12 9 10 9 11 9 11 11 13 16 19 19 20 19 20 22 23 24 25 22 21 24 24 23 22 20 20 20 15
40 40 30 21 18 17 17 15 12 13 10 10 10 9 7 10 10 13 17 19 19 18 17 17 18 20 21 21 21 23 25 24 22 21 21 19 18 13
39 38 31 18 14 16 13 12 13 11 9 8 7 6 7 9 12 15 19 19 20 19 16 16 16 18 19 18 19 21 22 23 23 22 20 13 7 2
35 30 23 14 15 14 15 14 13 10 10 8 6 5 7 10 15 15 17 18 19 20 20 19 18 17 16 16 20 20 21 22 22 20 13 5 3 3
24 27 21 17 14 13 13 12 13 11 10 7 5 5 8 10 14 14 16 17 18 19 20 21 23 25 23 19 12 19 21 21 18 10 6 5 12 12
23 23 21 17 16 12 11 13 13 10 8 6 4 5 8 11 11 13 14 16 17 18 20 21 22 24 26 26 21 13 19 16 12 10 6 5 12 16
27 25 24 18 14 14 12 14 12 9 7 5 2 5 8 9 10 12 14 15 16 18 20 19 20 21 23 24 24 18 12 11 14 11 8 8 13 19
31 27 23 18 12 10 9 10 9 8 7 4 2 4 6 8 9 12 13 14 16 18 20 21 20 19 19 20 21 18 13 12 8 8 8 8 6 4
32 30 24 19 11 7 6 8 8 9 6 3 1 5 6 8 10 11 13 14 16 18 19 19 19 21 20 21 21 16 10 9 7 6 6 4 7 13
33 30 26 19 14 8 4 7 10 8 5 3 4 5 7 8 10 12 13 15 17 18 20 21 21 21 20 19 16 10 7 8 10 8 13 14 12 6
Wind_Direction
288 282 279 280 280 278 279 280 286 293 295 301 302 308 311 316 319 321 324 328 330 333 333 334 334 334 333 332 331 330 329 330 330 330 330 331 334 331
292 288 283 280 279 279 277 278 278 284 292 298 301 304 309 314 318 321 323 327 330 332 333 333 334 335 334 333 333 333 334 335 335 335 335 335 334 333
289 289 286 283 278 272 275 278 280 280 286 294 297 303 306 309 315 320 323 325 328 333 334 335 335 335 335 335 337 337 337 338 338 339 338 336 336 335
283 284 285 285 279 278 278 276 278 279 281 287 295 300 303 310 312 317 320 325 329 332 335 335 336 337 338 339 338 339 340 340 339 340 340 340 338 337
283 280 282 281 280 279 275 279 277 278 278 287 295 302 307 313 315 319 321 325 329 333 335 337 338 338 338 338 339 341 341 340 341 341 343 344 343 342
281 279 279 278 276 273 276 274 274 275 281 282 291 298 306 313 314 316 320 325 328 335 336 336 338 338 338 340 340 342 342 343 344 345 346 345 345 345
281 279 279 275 272 273 275 273 269 269 276 283 289 296 302 308 311 319 320 326 330 335 337 336 338 340 342 343 343 345 344 345 346 347 346 346 347 346
285 280 279 278 272 267 265 271 267 264 263 277 283 290 295 304 315 319 323 327 329 338 338 338 340 340 343 344 345 344 344 347 347 346 346 345 343 343
287 284 281 281 278 274 265 267 268 268 277 273 277 284 295 302 313 320 323 327 330 338 340 338 343 340 344 345 345 346 346 346 346 346 346 343 341 341
290 286 283 280 278 273 272 270 269 273 278 279 283 289 299 309 318 325 329 332 336 338 343 339 345 341 344 345 350 352 350 347 345 345 344 343 344 344
292 289 284 279 274 267 268 267 271 276 289 290 294 298 305 315 326 331 332 332 333 336 344 341 345 343 346 349 356 355 350 349 347 345 344 345 347 345
291 293 287 276 278 261 262 265 267 267 269 278 291 303 313 323 330 332 338 335 336 337 346 345 347 351 352 357 357 353 355 353 349 347 346 348 348 348
292 293 291 288 276 253 260 259 256 257 264 277 284 299 311 323 331 340 345 344 340 341 351 350 350 353 354 352 354 355 356 352 350 350 351 350 348 346
293 291 293 289 277 252 257 262 256 251 269 269 286 296 306 321 332 344 349 348 348 347 354 355 353 354 353 352 355 359 354 351 351 351 350 349 346 347
299 291 292 286 276 261 257 238 240 257 263 264 287 297 313 334 343 350 350 348 349 351 353 356 354 354 354 354 351 351 355 355 351 353 351 353 352 357
301 292 288 288 282 268 247 237 256 256 249 268 285 295 335 342 341 348 344 346 348 354 359 359 360 357 354 353 352 349 354 356 355 354 355 356 356 270
297 300 291 286 275 263 255 255 252 247 257 281 282 292 326 335 338 347 347 350 351 356 358 1 5 2 356 353 355 357 358 356 356 358 1 330 297 340
296 291 291 280 264 254 249 239 246 243 254 270 273 301 325 338 344 348 350 353 357 359 1 3 3 4 7 9 9 2 360 360 3 3 352 316 267 255
287 289 287 280 274 256 236 231 236 239 247 247 265 313 334 346 352 353 356 359 2 5 6 8 9 9 6 6 9 13 4 7 6 2 348 302 271 264
287 286 285 285 279 269 256 235 238 227 234 238 257 325 348 0 2 2 1 7 9 10 9 14 14 16 13 10 9 10 15 7 8 356 321 291 268 266
283 286 289 292 289 278 250 234 224 206 194 173 299 359 12 19 17 10 14 17 16 15 15 15 20 21 18 18 16 14 17 21 4 344 325 326 318 322
281 280 289 292 295 277 258 227 202 188 168 245 38 36 35 35 26 24 28 26 23 22 21 24 27 25 25 23 17 16 9 5 328 2 358 329 2 15
283 282 287 290 289 278 220 180 190 187 201 145 84 52 50 43 33 40 37 33 30 28 28 29 29 31 29 26 25 18 342 357 7 345 28 24 20 340